User: anonymous   Login
Location: Dampvalley
(47.9094°N, 6.1967°E)
Time: 14:32:08
(UTC+00:00)
Language:

DUCHIFAT 1 - Orbit

View from above orbital plane
View from above orbital plane
View from above satellite
View from above satellite

Ground track
Ground track

The orbit data is extracted from the following two-line orbital elements,

1 40021U 14033M   21331.09145276  .00000818  00000-0  87187-4 0  9994
2 40021  97.9892 273.1532 0012689 355.1856   4.9238 14.91655092404528
Epoch (UTC): 27 November 2021 02:11:41
Eccentricity: 0.0012689
inclination: 97.9892°
perigee height: 584 km
apogee height: 601 km
right ascension of ascending node: 273.1532°
argument of perigee: 355.1856°
revolutions per day: 14.91655092
mean anomaly at epoch: 4.9238°
orbit number at epoch: 40452

The dashed part of the orbit path shows where the satellite is in the earth's shadow,  

DLR